Location: Unspecified
(38.9820°N, 94.4650°W)
Time: 03:37:41
(UTC-05:00)

Hubble Space Telescope - Visible Passes

Search period start: 03 August 2015 00:00
Search period end: 13 August 2015 00:00
Orbit: 541 x 545 km, 28.5° (Epoch: 02 August)

Date Brightness Start Highest point End Pass type
(mag) Time Alt. Az. Time Alt. Az. Time Alt. Az.
03 Aug 2.8 21:24:52 10° S 21:26:09 11° SSE 21:26:38 11° SSE visible
04 Aug 2.7 21:15:12 10° SSW 21:17:09 13° SSE 21:18:35 11° SE visible
05 Aug 2.7 21:05:47 10° SSW 21:08:09 15° SSE 21:10:23 11° SE visible
06 Aug 2.6 20:56:32 10° SSW 20:59:10 16° S 21:01:49 10° SE visible
06 Aug 3.2 22:36:56 10° SW 22:37:30 12° SW 22:37:30 12° SW visible
07 Aug 2.5 20:47:22 10° SW 20:50:10 18° S 20:53:00 10° SE visible
07 Aug 3.0 22:28:03 10° SW 22:29:06 14° SW 22:29:06 14° SW visible
08 Aug 2.9 22:19:13 10° SW 22:20:38 15° SSW 22:20:38 15° SSW visible
09 Aug 2.9 22:10:30 10° SW 22:12:08 14° SSW 22:12:08 14° SSW visible
10 Aug 3.0 22:01:53 10° SW 22:03:36 13° SSW 22:03:36 13° SSW visible
11 Aug 3.1 21:53:35 10° SW 21:54:50 11° SSW 21:55:04 11° SSW visible
